Printer-friendly version

IAU Minor Planet Center

Minor Planet Center

MPEC 2000-X08: 2000 WO107

The following Minor Planet Electronic Circular may be linked-to from your own Web pages, but must not otherwise be redistributed electronically.


Read MPEC 2000-X07 Read MPEC 2000-X09


M.P.E.C. 2000-X08                                Issued 2000 Dec. 1, 18:49 UT

     The Minor Planet Electronic Circulars contain information on unusual
         minor planets and routine data on comets.  They are published
   on behalf of Commission 20 of the International Astronomical Union by the
          Minor Planet Center, Smithsonian Astrophysical Observatory,
                          Cambridge, MA 02138, U.S.A.

             Prepared using the Tamkin Foundation Computer Network

                              MPC@CFA.HARVARD.EDU
          URL http://cfa-www.harvard.edu/iau/mpc.html  ISSN 1523-6714

                                  2000 WO107

Observations:
     K00WA7O* C2000 11 29.39177 07 36 14.09 +24 11 57.6          15.8        704
     K00WA7O  C2000 11 29.40901 07 35 39.93 +24 13 58.4          15.6        704
     K00WA7O  C2000 11 29.42569 07 35 06.88 +24 15 53.9          16.1        704
     K00WA7O  C2000 11 29.44053 07 34 37.50 +24 17 36.7          16.2        704
     K00WA7O  C2000 11 29.45578 07 34 07.34 +24 19 20.9          16.0        704
     K00WA7O  C2000 11 30.10814 07 13 17.46 +25 26 23.9          16.7 V      557
     K00WA7O  C2000 11 30.10887 07 13 16.05 +25 26 27.9                      557
     K00WA7O  C2000 11 30.10924 07 13 15.34 +25 26 29.9                      557
     K00WA7O  C2000 11 30.10961 07 13 14.63 +25 26 32.1                      557
     K00WA7O  C2000 11 30.10998 07 13 13.92 +25 26 34.1                      557
     K00WA7O  C2000 11 30.11035 07 13 13.20 +25 26 36.2                      557
     K00WA7O  C2000 11 30.11072 07 13 12.51 +25 26 38.0                      557
     K00WA7O  C2000 11 30.36951 07 05 11.04 +25 49 50.7          15.2        704
     K00WA7O  C2000 11 30.36965 07 05 10.79 +25 49 51.5          17.1        704
     K00WA7O  C2000 11 30.38435 07 04 43.06 +25 51 05.5          16.0        704
     K00WA7O  C2000 11 30.38449 07 04 42.82 +25 51 06.3          17.6        704
     K00WA7O  C2000 11 30.39963 07 04 14.27 +25 52 22.4          15.4        704
     K00WA7O  C2000 11 30.39977 07 04 14.02 +25 52 22.9          17.5        704
     K00WA7O  C2000 11 30.41481 07 03 46.15 +25 53 37.6          14.6        919
     K00WA7O  C2000 11 30.41613 07 03 43.18 +25 53 44.0          16.2        704
     K00WA7O  C2000 11 30.41758 07 03 40.90 +25 53 52.4          15.1        919
     K00WA7O  C2000 11 30.41907 07 03 38.23 +25 53 58.8          16.0        919
     K00WA7O  C2000 11 30.42034 07 03 35.75 +25 54 05.7          15.6        919
     K00WA7O  C2000 11 30.43144 07 03 14.44 +25 54 58.7          16.3        704
     K00WA7O  C2000 11 30.45844 07 02 23.50 +25 57 12.4                      711
     K00WA7O  C2000 11 30.46110 07 02 18.52 +25 57 25.3                      711
     K00WA7O  C2000 11 30.46379 07 02 13.51 +25 57 38.0                      711
     K00WA7O  C2000 12 01.02486 06 45 26.22 +26 37 44.8                      595
     K00WA7O  C2000 12 01.02734 06 45 21.83 +26 37 53.4                      595
     K00WA7O  C2000 12 01.02751 06 45 21.41 +26 37 51.3          15.2 R      046
     K00WA7O  C2000 12 01.02780 06 45 20.86 +26 37 52.5                      046
     K00WA7O  C2000 12 01.02861 06 45 19.43 +26 37 55.6                      046
     K00WA7O  C2000 12 01.02984 06 45 17.25 +26 38 00.3          15.3 R      046
     K00WA7O  C2000 12 01.03017 06 45 16.66 +26 38 01.5                      046
     K00WA7O  C2000 12 01.03147 06 45 14.33 +26 38 06.6          15.4 R      046
     K00WA7O  C2000 12 01.03267 06 45 12.31 +26 38 14.3          15.4 V      595
     K00WA7O  C2000 12 01.03510 06 45 07.96 +26 38 23.3                      595
     K00WA7O  C2000 12 01.03756 06 45 03.59 +26 38 33.0                      595
     K00WA7O  C2000 12 01.39320 06 34 47.94 +26 59 31.0                      711
     K00WA7O  C2000 12 01.39639 06 34 42.43 +26 59 41.1                      711
     K00WA7O  C2000 12 01.39965 06 34 36.77 +26 59 51.4                      711
     K00WA7O  C2000 12 01.63523 06 28 04.63 +27 11 25.3          14.9 V      900
     K00WA7O  C2000 12 01.63706 06 28 01.53 +27 11 30.7                      900

Observer details:
046 Klet.  Observers M. Tichy, M. Kocer.  0.57-m f/5.2 reflector + CCD.
557 Ondrejov.  Observer P. Kusnirak.  0.65-m f/3.6 reflector + CCD.
595 Farra d'Isonzo.  Observer E. Pettarin.  0.40-m f/4.5 reflector + CCD.
704 Lincoln Laboratory ETS, New Mexico.  Observers M. Blythe, F. Shelly,
    M. Bezpalko, M. Elowitz, R. Huber, L. Manguso.  Measurers J. Stuart,
    R. Sayer, J. B. Evans, H. Viggh.  1.0-m f/2.15 reflector + CCD.
711 McDonald Observatory.  Observer J. G. Ries.  0.76-m reflector + CCD.
900 Moriyama.  Observer Y. Ikari.  0.25-m f/6.3 reflector + CCD.
919 Desert Beaver Observatory.  Observer K. W. Yeung.  0.45-m reflector + CCD.

Orbital elements:
2000 WO107                                                           PHA 0.002
Epoch 2000 Nov. 12.0 TT = JDT 2451860.5                 Spahr
M  38.50858              (2000.0)            P               Q
n   1.13320993     Peri.  213.54337     +0.21975673     +0.96729418
a   0.9111624      Node    69.43096     -0.86268018     +0.25331907
e   0.7802484      Incl.    7.77658     -0.45551058     -0.01309287
P   0.87           H   19.2           G   0.15
From 43 observations 2000 Nov. 29-Dec. 1.

Ephemeris:
2000 WO107               a,e,i = 0.91, 0.78, 8                   q = 0.2002
Date    TT    R. A. (2000) Decl.     Delta      r     Elong.  Phase     V
2000 11 22    10 56.34   +03 52.0    0.121    0.966    76.1    96.9    18.0
2000 12 02    06 18.19   +27 26.8    0.112    1.089   155.7    21.8    15.7
2000 12 12    03 54.57   +26 00.9    0.220    1.195   160.9    15.6    17.2
2000 12 22    03 16.75   +23 53.1    0.358    1.286   142.3    27.9    18.8
2001 01 01    03 05.81   +22 58.5    0.508    1.364   129.6    33.7    19.8
2001 01 11    03 05.38   +22 43.7    0.664    1.431   119.3    36.8    20.6
2001 01 21    03 10.35   +22 51.2    0.824    1.487   110.3    38.4    21.2
2001 01 31    03 18.72   +23 12.1    0.984    1.532   102.2    38.9    21.6
2001 02 10    03 29.43   +23 41.1    1.143    1.568    94.6    38.8    22.0

Timothy B. Spahr             (C) Copyright 2000 MPC           M.P.E.C. 2000-X08

Read MPEC 2000-X07 Read MPEC 2000-X09


Our Web policy. Index to the CBAT/MPC/ICQ pages.


Valid HTML 4.01!